ANA657 RJTT-RJOB

Flight info

Callsign ANA657
Flight time 0h 55m
Altitude 32000
Route NINOX Y28 IPLES Y207 ARASI Y20 WAKIT Y205 OYE
Aircraft B738/M-SDE2E3FGHIRWXY/LB1

Departure

Time 2026-05-06 01:00
Airport Tokyo Haneda International Airport (RJTT)

Arrival

Time 2026-05-06 01:56
Airport Okayama Momotaro Airport (RJOB)
Time Latitude Longitude Altitude Speed Heading
2026-05-06 00:42 35.55879 139.78409 22 ft 0 kts 240°
2026-05-06 00:52 35.55884 139.78420 21 ft 4 kts 246°
2026-05-06 00:53 35.55892 139.78451 21 ft 4 kts 253°
2026-05-06 00:53 35.55900 139.78474 21 ft 4 kts 244°
2026-05-06 00:53 35.55906 139.78504 21 ft 4 kts 284°
2026-05-06 00:53 35.55894 139.78527 21 ft 2 kts 329°
2026-05-06 00:54 35.55892 139.78529 21 ft 0 kts 330°
2026-05-06 00:56 35.55903 139.78521 23 ft 3 kts 330°
2026-05-06 00:56 35.55945 139.78491 22 ft 11 kts 330°
2026-05-06 00:56 35.56029 139.78432 23 ft 17 kts 330°
2026-05-06 00:57 35.56150 139.78346 24 ft 22 kts 330°
2026-05-06 00:57 35.56262 139.78248 26 ft 16 kts 288°
2026-05-06 00:57 35.56220 139.78128 24 ft 15 kts 240°
2026-05-06 00:57 35.56163 139.78009 24 ft 18 kts 239°
2026-05-06 00:58 35.56091 139.77856 26 ft 24 kts 240°
2026-05-06 00:58 35.55999 139.77663 24 ft 29 kts 240°
2026-05-06 00:58 35.55893 139.77438 23 ft 29 kts 240°
2026-05-06 00:58 35.55812 139.77314 21 ft 16 kts 214°
2026-05-06 00:59 35.55723 139.77237 21 ft 15 kts 215°
2026-05-06 00:59 35.55648 139.77174 27 ft 10 kts 207°
2026-05-06 00:59 35.55609 139.77183 26 ft 1 kts 149°
2026-05-06 00:59 35.55591 139.77197 25 ft 8 kts 150°
2026-05-06 01:00 35.55363 139.77358 21 ft 76 kts 150°
2026-05-06 01:00 35.54698 139.77830 22 ft 142 kts 150°
2026-05-06 01:00 35.53781 139.78494 497 ft 155 kts 150°
2026-05-06 01:00 35.52863 139.79153 1336 ft 154 kts 152°
2026-05-06 01:01 35.51915 139.79815 2030 ft 164 kts 152°
2026-05-06 01:01 35.50826 139.80574 2410 ft 195 kts 152°
2026-05-06 01:01 35.49568 139.81457 2686 ft 219 kts 152°
2026-05-06 01:01 35.48197 139.82425 3029 ft 239 kts 152°
2026-05-06 01:02 35.46718 139.83473 3709 ft 249 kts 152°
2026-05-06 01:02 35.45204 139.84547 4577 ft 254 kts 152°
2026-05-06 01:02 35.43666 139.85635 5487 ft 257 kts 154°
2026-05-06 01:02 35.41962 139.86260 6307 ft 258 kts 180°
2026-05-06 01:03 35.40210 139.85835 7149 ft 260 kts 206°
2026-05-06 01:03 35.38762 139.84491 7961 ft 267 kts 229°
2026-05-06 01:03 35.37736 139.82607 8753 ft 273 kts 238°
2026-05-06 01:03 35.37081 139.80390 9436 ft 286 kts 262°
2026-05-06 01:04 35.37317 139.77943 10232 ft 296 kts 287°
2026-05-06 01:04 35.38447 139.75739 10586 ft 324 kts 315°
2026-05-06 01:04 35.40339 139.74054 10804 ft 349 kts 325°
2026-05-06 01:04 35.42260 139.72151 10949 ft 369 kts 309°
2026-05-06 01:05 35.43552 139.69377 11161 ft 382 kts 288°
2026-05-06 01:05 35.44363 139.66284 11665 ft 390 kts 284°
2026-05-06 01:05 35.45146 139.63091 12319 ft 393 kts 284°
2026-05-06 01:05 35.45942 139.59876 13051 ft 395 kts 284°
2026-05-06 01:06 35.46762 139.56657 13799 ft 396 kts 285°
2026-05-06 01:06 35.47600 139.53427 14541 ft 398 kts 285°
2026-05-06 01:06 35.48414 139.50180 15282 ft 398 kts 281°
2026-05-06 01:06 35.48749 139.46816 16055 ft 397 kts 270°
2026-05-06 01:07 35.48849 139.43433 16830 ft 397 kts 270°
2026-05-06 01:07 35.48947 139.40034 17456 ft 400 kts 270°
2026-05-06 01:07 35.49021 139.36616 18118 ft 402 kts 269°
2026-05-06 01:07 35.49107 139.33215 18830 ft 404 kts 270°
2026-05-06 01:08 35.49248 139.29782 19546 ft 404 kts 270°
2026-05-06 01:08 35.49415 139.26342 20281 ft 401 kts 270°
2026-05-06 01:08 35.49570 139.22918 20946 ft 402 kts 270°
2026-05-06 01:08 35.49704 139.19499 21522 ft 402 kts 269°
2026-05-06 01:09 35.49827 139.16061 22142 ft 402 kts 268°
2026-05-06 01:09 35.49784 139.12649 22676 ft 399 kts 264°
2026-05-06 01:09 35.49611 139.09237 23104 ft 402 kts 263°
2026-05-06 01:09 35.49403 139.05882 23722 ft 399 kts 263°
2026-05-06 01:10 35.49188 139.02483 24161 ft 399 kts 262°
2026-05-06 01:10 35.48985 138.99077 24532 ft 401 kts 263°
2026-05-06 01:10 35.48799 138.95661 24844 ft 403 kts 263°
2026-05-06 01:10 35.48613 138.92234 25308 ft 402 kts 263°
2026-05-06 01:11 35.48428 138.88805 25691 ft 402 kts 263°
2026-05-06 01:11 35.48268 138.85379 26072 ft 403 kts 263°
2026-05-06 01:11 35.48111 138.81947 26364 ft 404 kts 263°
2026-05-06 01:11 35.47947 138.78493 26639 ft 406 kts 263°
2026-05-06 01:12 35.47776 138.75090 26971 ft 405 kts 263°
2026-05-06 01:12 35.47602 138.71646 27327 ft 405 kts 263°
2026-05-06 01:12 35.47425 138.68218 27797 ft 401 kts 263°
2026-05-06 01:12 35.47251 138.64837 28378 ft 394 kts 263°
2026-05-06 01:13 35.47075 138.61497 28905 ft 390 kts 263°
2026-05-06 01:13 35.46901 138.58191 29456 ft 386 kts 262°
2026-05-06 01:13 35.46729 138.54929 29996 ft 381 kts 262°
2026-05-06 01:13 35.46555 138.51702 30550 ft 377 kts 262°
2026-05-06 01:14 35.46217 138.45395 31535 ft 370 kts 262°
2026-05-06 01:14 35.46048 138.42245 31892 ft 370 kts 262°
2026-05-06 01:14 35.45879 138.39099 32204 ft 370 kts 262°
2026-05-06 01:15 35.45525 138.32791 32210 ft 372 kts 262°
2026-05-06 01:15 35.45184 138.26473 32236 ft 371 kts 262°
2026-05-06 01:16 35.44836 138.20199 32222 ft 372 kts 262°
2026-05-06 01:16 35.44494 138.13884 32245 ft 371 kts 262°
2026-05-06 01:17 35.44130 138.07567 32218 ft 371 kts 262°
2026-05-06 01:17 35.43762 138.01256 32253 ft 371 kts 262°
2026-05-06 01:18 35.43393 137.94989 32242 ft 370 kts 261°
2026-05-06 01:18 35.43029 137.88691 32232 ft 371 kts 261°
2026-05-06 01:19 35.42662 137.82384 32223 ft 371 kts 261°
2026-05-06 01:19 35.42273 137.76079 32209 ft 369 kts 261°
2026-05-06 01:20 35.41805 137.69880 32211 ft 367 kts 260°
2026-05-06 01:20 35.41334 137.63649 32226 ft 367 kts 260°
2026-05-06 01:21 35.40846 137.57392 32198 ft 370 kts 259°
2026-05-06 01:21 35.40237 137.51149 32234 ft 370 kts 258°
2026-05-06 01:22 35.39469 137.44925 32218 ft 373 kts 257°
2026-05-06 01:22 35.38698 137.38620 32217 ft 374 kts 258°
2026-05-06 01:23 35.37945 137.32317 32221 ft 375 kts 258°
2026-05-06 01:23 35.37192 137.25988 32228 ft 375 kts 258°
2026-05-06 01:24 35.36437 137.19672 32223 ft 375 kts 257°
2026-05-06 01:24 35.35684 137.13399 32226 ft 374 kts 257°
2026-05-06 01:25 35.34922 137.07105 32193 ft 373 kts 257°
2026-05-06 01:25 35.34160 137.00827 32225 ft 372 kts 257°
2026-05-06 01:26 35.33396 136.94548 32227 ft 373 kts 257°
2026-05-06 01:26 35.32633 136.88314 32228 ft 373 kts 257°
2026-05-06 01:27 35.31862 136.82039 32226 ft 373 kts 257°
2026-05-06 01:27 35.31086 136.75747 32219 ft 373 kts 257°
2026-05-06 01:28 35.30307 136.69465 32222 ft 373 kts 257°
2026-05-06 01:28 35.29531 136.63228 32220 ft 373 kts 257°
2026-05-06 01:29 35.28747 136.56961 32221 ft 372 kts 257°
2026-05-06 01:29 35.28354 136.53828 31967 ft 372 kts 257°
2026-05-06 01:29 35.27964 136.50716 31737 ft 367 kts 257°
2026-05-06 01:30 35.27576 136.47662 31474 ft 360 kts 257°
2026-05-06 01:30 35.27193 136.44646 31221 ft 357 kts 257°
2026-05-06 01:30 35.26816 136.41640 30986 ft 359 kts 258°
2026-05-06 01:30 35.26435 136.38621 30723 ft 362 kts 257°
2026-05-06 01:31 35.26058 136.35605 30479 ft 351 kts 257°
2026-05-06 01:31 35.25693 136.32731 30227 ft 344 kts 257°
2026-05-06 01:31 35.25326 136.29862 29983 ft 341 kts 257°
2026-05-06 01:31 35.24954 136.26978 29746 ft 344 kts 257°
2026-05-06 01:32 35.24581 136.24088 29490 ft 345 kts 257°
2026-05-06 01:32 35.24208 136.21183 29241 ft 348 kts 257°
2026-05-06 01:32 35.23833 136.18251 28997 ft 349 kts 257°
2026-05-06 01:32 35.23432 136.15312 28742 ft 349 kts 256°
2026-05-06 01:33 35.22992 136.12386 28488 ft 351 kts 256°
2026-05-06 01:33 35.22572 136.09477 28244 ft 352 kts 257°
2026-05-06 01:33 35.22143 136.06511 27999 ft 357 kts 256°
2026-05-06 01:33 35.21699 136.03517 27751 ft 359 kts 256°
2026-05-06 01:34 35.21247 136.00499 27494 ft 363 kts 256°
2026-05-06 01:34 35.20791 135.97436 27255 ft 369 kts 256°
2026-05-06 01:34 35.20339 135.94335 27000 ft 371 kts 256°
2026-05-06 01:34 35.19879 135.91214 26740 ft 374 kts 257°
2026-05-06 01:35 35.19422 135.88081 26480 ft 376 kts 256°
2026-05-06 01:35 35.18963 135.84964 26252 ft 379 kts 257°
2026-05-06 01:35 35.18491 135.81777 26003 ft 382 kts 256°
2026-05-06 01:35 35.18010 135.78577 25758 ft 384 kts 256°
2026-05-06 01:36 35.17488 135.75373 25512 ft 386 kts 256°
2026-05-06 01:36 35.16943 135.72156 25249 ft 387 kts 255°
2026-05-06 01:36 35.16391 135.68927 25011 ft 389 kts 256°
2026-05-06 01:36 35.15836 135.65687 24761 ft 391 kts 255°
2026-05-06 01:37 35.15280 135.62426 24520 ft 393 kts 256°
2026-05-06 01:37 35.14732 135.59194 24268 ft 395 kts 256°
2026-05-06 01:37 35.14174 135.55898 24014 ft 398 kts 256°
2026-05-06 01:37 35.13611 135.52579 23762 ft 400 kts 256°
2026-05-06 01:38 35.13046 135.49243 23524 ft 401 kts 256°
2026-05-06 01:38 35.12478 135.45903 23266 ft 402 kts 256°
2026-05-06 01:38 35.11908 135.42554 23016 ft 403 kts 256°
2026-05-06 01:38 35.11336 135.39198 22768 ft 404 kts 256°
2026-05-06 01:39 35.10768 135.35863 22514 ft 397 kts 256°
2026-05-06 01:39 35.10216 135.32634 22296 ft 395 kts 256°
2026-05-06 01:39 35.09648 135.29326 22237 ft 398 kts 256°
2026-05-06 01:39 35.09083 135.26038 22213 ft 393 kts 256°
2026-05-06 01:40 35.08523 135.22785 21799 ft 390 kts 256°
2026-05-06 01:40 35.07969 135.19573 21213 ft 384 kts 256°
2026-05-06 01:40 35.07423 135.16413 20574 ft 378 kts 256°
2026-05-06 01:40 35.06882 135.13290 19925 ft 373 kts 256°
2026-05-06 01:41 35.06346 135.10207 19284 ft 369 kts 256°
2026-05-06 01:41 35.05824 135.07196 18665 ft 366 kts 256°
2026-05-06 01:41 35.05325 135.04320 18038 ft 362 kts 256°
2026-05-06 01:41 35.04813 135.01368 17444 ft 359 kts 256°
2026-05-06 01:42 35.04294 134.98394 16800 ft 357 kts 256°
2026-05-06 01:42 35.03833 134.95756 16234 ft 356 kts 256°
2026-05-06 01:42 35.03313 134.92814 15621 ft 355 kts 255°
2026-05-06 01:42 35.02662 134.89895 14725 ft 359 kts 252°
2026-05-06 01:43 35.01927 134.87024 14016 ft 359 kts 251°
2026-05-06 01:43 35.01163 134.84112 13221 ft 362 kts 251°
2026-05-06 01:43 35.00402 134.81196 12559 ft 360 kts 251°
2026-05-06 01:43 34.99652 134.78300 11928 ft 357 kts 251°
2026-05-06 01:44 34.98912 134.75416 11312 ft 356 kts 251°
2026-05-06 01:44 34.98180 134.72553 10945 ft 347 kts 251°
2026-05-06 01:44 34.97476 134.69792 10744 ft 335 kts 250°
2026-05-06 01:44 34.96804 134.67168 10617 ft 323 kts 251°
2026-05-06 01:45 34.96146 134.64599 10438 ft 312 kts 251°
2026-05-06 01:45 34.95512 134.62125 10292 ft 301 kts 251°
2026-05-06 01:45 34.94899 134.59733 10149 ft 291 kts 250°
2026-05-06 01:45 34.94305 134.57423 10054 ft 281 kts 251°
2026-05-06 01:46 34.93726 134.55168 9822 ft 278 kts 251°
2026-05-06 01:46 34.93146 134.52921 9500 ft 277 kts 250°
2026-05-06 01:46 34.92570 134.50681 9185 ft 276 kts 250°
2026-05-06 01:46 34.92003 134.48482 8863 ft 267 kts 250°
2026-05-06 01:47 34.91455 134.46360 8589 ft 266 kts 250°
2026-05-06 01:47 34.90904 134.44224 8284 ft 264 kts 250°
2026-05-06 01:47 34.90354 134.42099 7994 ft 261 kts 251°
2026-05-06 01:47 34.89811 134.39998 7709 ft 260 kts 250°
2026-05-06 01:48 34.89263 134.37888 7441 ft 262 kts 250°
2026-05-06 01:48 34.88711 134.35760 7119 ft 263 kts 251°
2026-05-06 01:48 34.88162 134.33633 6795 ft 264 kts 251°
2026-05-06 01:48 34.87622 134.31544 6544 ft 261 kts 251°
2026-05-06 01:49 34.87074 134.29435 6245 ft 261 kts 251°
2026-05-06 01:49 34.86527 134.27325 5965 ft 262 kts 251°
2026-05-06 01:49 34.85977 134.25220 5652 ft 261 kts 250°
2026-05-06 01:49 34.85433 134.23126 5420 ft 257 kts 250°
2026-05-06 01:50 34.84902 134.21094 5296 ft 248 kts 250°
2026-05-06 01:50 34.84387 134.19123 5193 ft 240 kts 250°
2026-05-06 01:50 34.83885 134.17214 5079 ft 233 kts 250°
2026-05-06 01:50 34.83577 134.15306 5012 ft 231 kts 272°
2026-05-06 01:51 34.83867 134.13378 4866 ft 231 kts 282°
2026-05-06 01:51 34.84276 134.11521 4749 ft 226 kts 282°
2026-05-06 01:51 34.84667 134.09695 4601 ft 225 kts 281°
2026-05-06 01:51 34.85069 134.07835 4353 ft 229 kts 282°
2026-05-06 01:52 34.85206 134.05945 4023 ft 222 kts 253°
2026-05-06 01:52 34.84684 134.04259 3857 ft 208 kts 243°
2026-05-06 01:52 34.84063 134.02659 3552 ft 209 kts 238°
2026-05-06 01:52 34.83373 134.01165 3369 ft 197 kts 236°
2026-05-06 01:53 34.82683 133.99758 3202 ft 190 kts 234°
2026-05-06 01:53 34.82041 133.98419 2968 ft 184 kts 233°
2026-05-06 01:53 34.81390 133.97149 2740 ft 169 kts 234°
2026-05-06 01:53 34.80802 133.95931 2586 ft 166 kts 234°
2026-05-06 01:54 34.80170 133.94659 2306 ft 182 kts 239°
2026-05-06 01:54 34.79549 133.93365 2046 ft 175 kts 238°
2026-05-06 01:54 34.78937 133.92136 1821 ft 161 kts 240°
2026-05-06 01:54 34.78357 133.90967 1610 ft 165 kts 239°
2026-05-06 01:55 34.77792 133.89792 1434 ft 156 kts 238°
2026-05-06 01:55 34.77241 133.88690 1169 ft 153 kts 241°
2026-05-06 01:55 34.76699 133.87592 965 ft 150 kts 240°
2026-05-06 01:55 34.76173 133.86518 810 ft 143 kts 240°
2026-05-06 01:56 34.75738 133.85633 792 ft 92 kts 239°
2026-05-06 01:56 34.75520 133.85190 800 ft 30 kts 239°
2026-05-06 01:56 34.75492 133.85060 801 ft 13 kts 304°
2026-05-06 01:56 34.75556 133.85006 801 ft 7 kts 328°
2026-05-06 01:57 34.75603 133.84991 803 ft 7 kts 11°
2026-05-06 01:57 34.75637 133.85035 802 ft 8 kts 58°
2026-05-06 01:57 34.75668 133.85098 800 ft 10 kts 59°
2026-05-06 01:57 34.75712 133.85187 797 ft 15 kts 59°
2026-05-06 01:58 34.75776 133.85317 794 ft 20 kts 59°
2026-05-06 01:58 34.75837 133.85440 794 ft 8 kts 59°
2026-05-06 01:58 34.75850 133.85459 794 ft 6 kts 34°
2026-05-06 01:58 34.75893 133.85448 794 ft 6 kts 332°
2026-05-06 01:59 34.75930 133.85421 795 ft 6 kts 329°
2026-05-06 01:59 34.75959 133.85400 796 ft 3 kts 329°
2026-05-06 01:59 34.75972 133.85390 796 ft 1 kts 329°
2026-05-06 01:59 34.75974 133.85389 796 ft 0 kts 329°